Regional Weather Roundup
Issued by NWS

Home | Current Version | Previous Version | Text Only | Print | Product List | Glossary Off
Versions: 1 2 3 4 5 6 7 8 9 10 11 12 13 14 15 16 17 18 19 20 21 22 23 24 25 26 27 28 29 30 31 32 33 34 35 36 37 38 39 40 41 42 43 44 45 46 47 48 49 50

000
ASUS43 KLSX 011159
RWRMO

WEATHER SUMMARY FOR MISSOURI
NATIONAL WEATHER SERVICE SPRINGFIELD MO
700 AM CDT MON SEP 01 2014

NOTE: "FAIR" INDICATES FEW OR NO CLOUDS BELOW 12,000 FEET WITH NO
       SIGNIFICANT WEATHER AND/OR OBSTRUCTIONS TO VISIBILITY.
       CURRENT SKY AND/OR WEATHER CONDITIONS ARE NOT AVAILABLE FOR
       CHILLICOTHE AND FARMINGTON.

MOZ001>031-035>038-043-044-053-054-011300-
...NORTHERN AND WESTERN MISSOURI...

CITY           SKY/WX    TMP DP  RH WIND       PRES   REMARKS
KANSAS CTY INT CLOUDY    65  62  90 SW12      29.83R
6HR MIN TEMP:  65; 6HR MAX TEMP:  66; 6HR PCP:  0.51;

KANSAS C DTWN  CLOUDY    68  63  84 SW13      29.82R
6HR MIN TEMP:  67; 6HR MAX TEMP:  69; 6HR PCP:  0.60;

ST JOSEPH      CLOUDY    67  64  90 SW10      29.82R
6HR MIN TEMP:  66; 6HR MAX TEMP:  67; 6HR PCP:  0.17;

CHILLICOTHE      N/A     67  66  97 S6        29.77R
6HR MIN TEMP:  67; 6HR MAX TEMP:  68; 6HR PCP:  0.55;

KIRKSVILLE     CLOUDY    66  63  90 W6        29.76R
6HR MIN TEMP:  66; 6HR MAX TEMP:  73; 6HR PCP:  0.33;


$$
MOZ066>068-077>081-088>096-101>105-011300-
...SOUTHWEST MISSOURI...

CITY           SKY/WX    TMP DP  RH WIND       PRES   REMARKS
SPRINGFIELD    LGT RAIN  65  62  90 E10       29.99S
6HR MIN TEMP:  64; 6HR MAX TEMP:  77; 6HR PCP:  0.50;

JOPLIN         CLOUDY    65  63  93 E10       29.96S
6HR MIN TEMP:  63; 6HR MAX TEMP:  80; 6HR PCP:  0.93;


$$
MOZ032>034-039>042-045>050-055>058-069>072-011300-
...CENTRAL MISSOURI...

CITY           SKY/WX    TMP DP  RH WIND       PRES   REMARKS
COLUMBIA       LGT RAIN  66  64  93 SE16      29.85F
6HR MIN TEMP:  66; 6HR MAX TEMP:  79; 6HR PCP:  0.28;

JEFFERSON CITY RAIN      68  65  90 SE7       29.92F
6HR MIN TEMP:  68; 6HR MAX TEMP:  80; 6HR PCP:  0.19;

ROLLA          RAIN      65  63  93 W9        30.00S
6HR MIN TEMP:  65; 6HR MAX TEMP:  75; 6HR PCP:  0.24;

SEDALIA        LGT RAIN  67  63  87 SE25G31   29.75F
6HR MIN TEMP:  66; 6HR MAX TEMP:  68;

WHITEMAN AFB   CLOUDY    66  63  88 S20G35    29.74F
OSAGE BEACH    CLOUDY    66  63  88 SE7       29.94F

$$
MOZ051-052-059>065-011300-
...EAST CENTRAL MISSOURI...

CITY           SKY/WX    TMP DP  RH WIND       PRES   REMARKS
ST LOUIS INTL  CLOUDY    77  71  82 SW12      29.91R
6HR MIN TEMP:  77; 6HR MAX TEMP:  79;

SPIRIT OF STL  CLOUDY    75  69  81 W14G29    29.92R
6HR MIN TEMP:  75; 6HR MAX TEMP:  77;

ST CHARLES     CLOUDY    76  71  85 W14       29.90R
6HR MIN TEMP:  74; 6HR MAX TEMP:  76;


$$
MOZ072>076-082>087-097>100-106>115-011300-
...SOUTH CENTRAL AND SOUTHEAST MISSOURI...

CITY           SKY/WX    TMP DP  RH WIND       PRES   REMARKS
CAPE GIRARDEAU CLOUDY    75  72  90 SW9       29.98R
6HR MIN TEMP:  74; 6HR MAX TEMP:  77;

FARMINGTON     MOCLDY    73  70  88 SW14      29.98R
6HR MIN TEMP:  72; 6HR MAX TEMP:  73;

POPLAR BLUFF   CLOUDY    74  70  87 SW7       29.99R
6HR MIN TEMP:  73; 6HR MAX TEMP:  75;

WEST PLAINS    PTCLDY    72  69  90 S6        30.02R
6HR MIN TEMP:  71; 6HR MAX TEMP:  74;


$$


USA.gov is the U.S. government's official web portal to all federal, state and local government web resources and services.